Raleigh-Durham Airport, NC

3:51 PM EDT on April 21, 2018 (GMT -0400)
Raleigh-Durham International

Weather History for KRDU - March, 2013

Change the Weather History Date:

Tuesday, March 12, 2013

  Actual Average Record
Temperature  
Mean Temperature 59 °F 50 °F  
Max Temperature 69 °F 62 °F 90 °F (1990)
Min Temperature 48 °F 39 °F 19 °F (1969)
Degree Days  
Heating Degree Days 6 15  
Month to date heating degree days 248 195  
Since 1 July heating degree days 2694 2767  
Cooling Degree Days 0 0  
Month to date cooling degree days 0 0  
Year to date cooling degree days 2 1  
Growing Degree Days 10 (Base 50)    
Moisture  
Dew Point 52 °F    
Average Humidity 68    
Maximum Humidity 93    
Minimum Humidity 43    
Precipitation  
Precipitation 0.65 in 0.13 in 1.77 in (1891)
Month to date precipitation 1.07 1.61  
Year to date precipitation 8.25 8.34  
Snow  
Snow 0.00 in 0.00 in 2.60 in (1914)
Month to date snowfall 0.0 0.3  
Since 1 July snowfall 1.7 5.8  
Snow Depth 0.00 in    
Sea Level Pressure  
Sea Level Pressure 29.83 in    
Wind  
Wind Speed 10 mph (SW)    
Max Wind Speed 23 mph    
Max Gust Speed 33 mph    
Visibility 9 miles    
Events Rain    
T = Trace of Precipitation, MM = Missing Value Source: NWS Daily Summary

Daily Weather History Graph

Daily Weather History Graph

Search for Another Location

Airport or City:

Astronomy

Mar. 12, 2013 Rise Set
Actual Time 7:29 AM EDT 7:20 PM EDT
Civil Twilight 7:04 AM EDT 7:45 PM EDT
Nautical Twilight 6:34 AM EDT 8:15 PM EDT
Astronomical Twilight 6:04 AM EDT 8:45 PM EDT
Moon 7:38 AM EDT (3/12) 8:29 PM EDT (3/12)
Length of Visible Light 12h 41m
Length of Day
11h 50m
New Moon, 1% of the Moon is Illuminated
Mar 12
New Moon
Mar 19
First Quarter
Mar 27
Full
Apr 3
Last Quarter
Apr 10
New

Hourly Weather History & Observations

Time (EDT) Temp. Dew Point Humidity Pressure Visibility Wind Dir Wind Speed Gust Speed Precip Events Conditions
12:51 AM 60.1 °F 51.1 °F 72% 29.92 in 10.0 mi SSE 9.2 mph - N/A   Mostly Cloudy
1:51 AM 60.8 °F 53.6 °F 77% 29.91 in 10.0 mi SSE 10.4 mph 18.4 mph N/A   Mostly Cloudy
2:51 AM 57.0 °F 54.0 °F 89% 29.88 in 9.0 mi SSE 9.2 mph - 0.01 in Rain Light Rain
3:51 AM 57.0 °F 55.0 °F 93% 29.84 in 9.0 mi SSE 9.2 mph - 0.04 in Rain Light Rain
4:02 AM 57.2 °F 55.4 °F 94% 29.85 in 9.0 mi SSE 11.5 mph - 0.00 in Rain Light Rain
4:33 AM 57.2 °F 55.4 °F 94% 29.83 in 8.0 mi SSE 11.5 mph - 0.02 in Rain Light Rain
4:51 AM 59.0 °F 55.9 °F 90% 29.82 in 7.0 mi South 9.2 mph - 0.04 in Rain Light Rain
5:51 AM 60.8 °F 57.2 °F 88% 29.81 in 7.0 mi South 13.8 mph 23.0 mph N/A Rain Light Rain
6:51 AM 61.0 °F 57.9 °F 90% 29.79 in 8.0 mi South 16.1 mph 25.3 mph 0.08 in Rain Light Rain
7:51 AM 61.0 °F 57.9 °F 90% 29.79 in 4.0 mi South 13.8 mph 27.6 mph 0.02 in Rain Rain
8:51 AM 60.8 °F 57.2 °F 88% 29.78 in 5.0 mi SSW 15.0 mph 25.3 mph N/A Rain Light Rain
9:19 AM 60.8 °F 59.0 °F 94% 29.80 in 2.0 mi WSW 9.2 mph - 0.09 in Rain Heavy Rain
9:37 AM 60.8 °F 59.0 °F 94% 29.82 in 6.0 mi SW 12.7 mph - 0.31 in Rain Light Rain
9:51 AM 60.8 °F 59.0 °F 94% 29.82 in 10.0 mi SW 16.1 mph - N/A   Overcast
10:51 AM 63.0 °F 59.0 °F 87% 29.81 in 10.0 mi SSW 16.1 mph 23.0 mph 0.00 in   Overcast
11:51 AM 63.0 °F 59.0 °F 87% 29.82 in 10.0 mi SW 15.0 mph - 0.00 in   Overcast
12:51 PM 64.0 °F 59.0 °F 84% 29.82 in 10.0 mi WSW 9.2 mph - 0.00 in   Mostly Cloudy
1:51 PM 64.9 °F 55.9 °F 73% 29.79 in 10.0 mi WNW 9.2 mph 20.7 mph N/A   Mostly Cloudy
2:14 PM 68.0 °F 57.2 °F 68% 29.79 in 10.0 mi NNW 8.1 mph - N/A   Scattered Clouds
2:51 PM 66.9 °F 55.9 °F 68% 29.77 in 10.0 mi North 8.1 mph - N/A   Scattered Clouds
3:51 PM 66.9 °F 54.0 °F 63% 29.76 in 10.0 mi West 6.9 mph 16.1 mph N/A   Mostly Cloudy
4:48 PM 68.0 °F 53.6 °F 60% 29.77 in 10.0 mi WNW 10.4 mph - N/A   Mostly Cloudy
4:51 PM 68.0 °F 52.0 °F 56% 29.77 in 10.0 mi West 11.5 mph 17.3 mph N/A   Mostly Cloudy
5:51 PM 66.9 °F 48.9 °F 52% 29.78 in 10.0 mi Variable 5.8 mph 16.1 mph N/A   Mostly Cloudy
6:51 PM 66.0 °F 45.0 °F 47% 29.81 in 10.0 mi WNW 9.2 mph - N/A   Scattered Clouds
7:51 PM 61.0 °F 44.1 °F 54% 29.85 in 10.0 mi NW 3.5 mph - N/A   Scattered Clouds
8:51 PM 57.9 °F 39.9 °F 51% 29.89 in 10.0 mi Variable 5.8 mph - N/A   Partly Cloudy
9:51 PM 55.4 °F 33.8 °F 44% 29.92 in 10.0 mi Variable 4.6 mph - N/A   Partly Cloudy
10:51 PM 53.1 °F 32.0 °F 45% 29.94 in 10.0 mi NNW 4.6 mph - N/A   Clear
11:51 PM 50.0 °F 30.9 °F 48% 29.95 in 10.0 mi NNW 5.8 mph - N/A   Clear